FW9516 Weather Reports


time (UTC)temp
F
wind
direction
speed
knots
gust
knots
rain 1hr
in
rain 24hr
in
rain mn
in
humidity
%
barometer
mb
20260505124530 54 0 1.7 5.2 0.00 0.00 0.00 86 1014.5
20260505123034 54 214 0.9 4.3 0.00 0.00 0.00 86 1014.5
20260505121530 54 195 0.9 4.3 0.00 0.00 0.00 86 1014.4
20260505120030 54 260 1.7 7.0 0.00 0.00 0.00 86 1014.3
20260505114529 54 210 0.9 4.3 0.00 0.00 0.00 87 1014.3
20260505113028 54 0 0.0 3.5 0.00 0.00 0.00 87 1014.3
20260505111528 54 0 0.0 1.7 0.00 0.00 0.00 87 1014.3
20260505101548 53 0 0.0 3.5 0.00 0.00 0.00 88 1013.9
20260505100053 53 0 0.0 2.6 0.00 0.00 0.00 88 1013.9
20260505094532 53 0 0.0 3.5 0.00 0.00 0.00 89 1013.6
20260505093028 52 0 0.9 5.2 0.00 0.00 0.00 89 1013.6
20260505091528 52 0 0.0 3.5 0.00 0.00 0.00 90 1013.6
20260505090029 51 0 0.0 0.0 0.00 0.00 0.00 89 1013.5
20260505084529 51 0 0.0 0.0 0.00 0.00 0.00 89 1013.4
20260505083028 50 0 0.0 0.0 0.00 0.00 0.00 89 1013.4
20260505081528 51 0 0.0 0.0 0.00 0.00 0.00 88 1013.5
20260505080028 51 0 0.0 0.0 0.00 0.00 0.00 88 1013.4
20260505074528 51 0 0.0 0.0 0.00 0.00 0.00 88 1013.3
20260505073036 51 0 0.0 0.0 0.00 0.00 0.00 87 1013.0
20260505071530 52 0 0.0 0.9 0.00 0.00 0.00 87 1012.9
20260505070030 52 0 0.0 0.9 0.00 0.00 0.00 86 1012.8
20260505064527 53 0 0.0 0.9 0.00 0.00 0.00 85 1012.8
20260505063030 54 0 0.0 0.0 0.00 0.00 0.00 85 1012.5
20260505061537 54 0 0.0 0.9 0.00 0.00 0.00 84 1012.3
20260505060030 55 0 0.0 0.0 0.00 0.00 0.00 83 1012.1
20260505054529 55 0 0.0 1.7 0.00 0.00 0.00 83 1012.0
20260505053038 56 293 0.0 1.7 0.00 0.00 0.00 82 1011.9
20260505051538 56 0 0.0 1.7 0.00 0.00 0.00 81 1011.9
20260505041528 59 284 0.9 5.2 0.00 0.00 0.00 76 1011.3
20260505040029 60 272 1.7 5.2 0.00 0.00 0.00 74 1011.2
20260505034527 62 0 1.7 6.1 0.00 0.00 0.00 72 1010.8
20260505033028 63 269 1.7 7.8 0.00 0.00 0.00 69 1010.5
20260505031537 64 285 2.6 6.1 0.00 0.00 0.00 67 1010.4
20260505030030 66 0 0.9 6.1 0.00 0.00 0.00 64 1010.2
20260505024527 68 277 1.7 6.1 0.00 0.00 0.00 61 1010.1
20260505023027 69 333 1.7 7.8 0.00 0.00 0.00 60 1010.0
20260505021532 69 268 1.7 5.2 0.00 0.00 0.00 59 1009.9
20260505020036 71 281 1.7 7.8 0.00 0.00 0.00 56 1009.7
20260505014528 73 274 1.7 6.1 0.00 0.00 0.00 53 1009.9
20260505013031 74 196 2.6 7.8 0.00 0.00 0.00 53 1009.8
20260505011535 75 308 2.6 7.8 0.00 0.00 0.00 51 1009.7
20260505010050 75 326 3.5 7.8 0.00 0.00 0.00 51 1009.7
20260505004530 76 263 1.7 9.6 0.00 0.00 0.00 52 1009.6
20260505003032 77 278 2.6 7.8 0.00 0.00 0.00 51 1009.6
20260505001528 77 0 1.7 9.6 0.00 0.00 0.00 51 1009.5
20260505000041 78 323 1.7 8.7 0.00 0.00 0.00 51 1009.5
20260504234529 78 271 2.6 8.7 0.00 0.00 0.00 51 1009.5
20260504233026 78 310 2.6 7.8 0.00 0.00 0.00 52 1009.6
20260504231527 79 343 1.7 7.8 0.00 0.00 0.00 54 1009.6
20260504230038 79 302 2.6 6.1 0.00 0.00 0.00 48 1009.6
20260504224529 80 222 1.7 5.2 0.00 0.00 0.00 41 1009.7
20260504223029 79 225 1.7 7.8 0.00 0.00 0.00 47 1009.8
20260504221539 80 232 0.9 4.3 0.00 0.00 0.00 43 1010.0
20260504220033 79 324 1.7 7.0 0.00 0.00 0.00 49 1010.1
20260504214528 79 201 1.7 7.8 0.00 0.00 0.00 49 1010.1
20260504213033 78 193 0.9 6.1 0.00 0.00 0.00 49 1010.2
20260504211533 77 228 3.5 7.8 0.00 0.00 0.00 47 1010.3
20260504210027 77 0 1.7 7.8 0.00 0.00 0.00 48 1010.6
20260504204531 78 209 1.7 7.0 0.00 0.00 0.00 50 1010.6
20260504203043 78 265 0.9 4.3 0.00 0.00 0.00 48 1010.8
20260504201530 76 324 0.9 5.2 0.00 0.00 0.00 48 1010.7
20260504200027 76 256 2.6 7.8 0.00 0.00 0.00 48 1010.7
20260504194534 76 215 1.7 6.1 0.00 0.00 0.00 51 1010.9
20260504193026 75 232 2.6 7.8 0.00 0.00 0.00 50 1010.8
20260504191536 75 185 1.7 7.0 0.00 0.00 0.00 51 1010.9
20260504190030 74 0 0.9 7.0 0.00 0.00 0.00 53 1011.2
20260504184530 74 248 1.7 5.2 0.00 0.00 0.00 54 1011.4
20260504183030 73 182 1.7 6.1 0.00 0.00 0.00 57 1011.4
20260504181526 73 237 2.6 7.8 0.00 0.00 0.00 55 1011.4
20260504180030 72 171 0.9 6.1 0.00 0.00 0.00 56 1011.3
20260504174528 71 178 1.7 6.1 0.00 0.00 0.00 58 1011.4
20260504173034 71 209 1.7 6.1 0.00 0.00 0.00 58 1011.3
20260504171532 70 286 1.7 5.2 0.00 0.00 0.00 55 1011.4